TimeCST,TemperatureF,Dew PointF,Humidity,Sea Level PressureIn,VisibilityMPH,Wind Direction,Wind SpeedMPH,Gust SpeedMPH,PrecipitationIn,Events,Conditions,WindDirDegrees,DateUTC
12:15 AM,11.3,6.1,80,30.29,10.0,SW,11.5,-,N/A,,Clear,230,2013-12-10 06:15:00
12:35 AM,13.6,7.5,77,30.29,10.0,WSW,11.5,-,N/A,,Clear,250,2013-12-10 06:35:00
12:55 AM,12.7,6.6,77,30.28,10.0,WSW,10.4,-,N/A,,Clear,250,2013-12-10 06:55:00
1:15 AM,10.9,5.0,77,30.27,10.0,SW,8.1,-,N/A,,Clear,220,2013-12-10 07:15:00
1:35 AM,11.1,5.7,79,30.26,10.0,SW,8.1,-,N/A,,Clear,230,2013-12-10 07:35:00
1:55 AM,11.1,5.5,78,30.28,10.0,WSW,9.2,-,N/A,,Clear,240,2013-12-10 07:55:00
2:15 AM,11.3,5.9,79,30.28,10.0,WSW,5.8,-,N/A,,Clear,240,2013-12-10 08:15:00
2:35 AM,10.4,5.0,79,30.30,10.0,WSW,8.1,-,N/A,,Clear,240,2013-12-10 08:35:00
2:55 AM,10.4,5.0,79,30.29,10.0,West,8.1,-,N/A,,Clear,260,2013-12-10 08:55:00
3:15 AM,12.6,7.2,79,30.29,10.0,West,10.4,-,N/A,,Clear,270,2013-12-10 09:15:00
3:35 AM,12.4,6.8,78,30.29,10.0,West,9.2,-,N/A,,Clear,260,2013-12-10 09:35:00
4:35 AM,14.2,9.5,82,30.29,10.0,West,9.2,-,N/A,,Clear,270,2013-12-10 10:35:00
4:55 AM,15.1,10.2,81,30.29,10.0,West,8.1,-,N/A,,Clear,270,2013-12-10 10:55:00
5:15 AM,15.8,10.0,78,30.29,10.0,West,10.4,-,N/A,,Clear,270,2013-12-10 11:15:00
5:35 AM,15.8,10.0,78,30.29,10.0,West,11.5,-,N/A,,Clear,280,2013-12-10 11:35:00
5:55 AM,16.0,9.7,76,30.29,10.0,West,10.4,-,N/A,,Clear,270,2013-12-10 11:55:00
6:15 AM,18.3,10.4,71,30.29,10.0,West,11.5,-,N/A,,Clear,280,2013-12-10 12:15:00
6:35 AM,15.3,8.6,75,30.29,10.0,West,11.5,-,N/A,,Clear,270,2013-12-10 12:35:00
6:55 AM,15.8,8.2,72,30.29,10.0,West,9.2,-,N/A,,Clear,270,2013-12-10 12:55:00
7:15 AM,16.7,8.6,70,30.29,10.0,West,11.5,-,N/A,,Clear,270,2013-12-10 13:15:00
7:35 AM,15.1,7.3,71,30.30,10.0,West,9.2,-,N/A,,Clear,260,2013-12-10 13:35:00
7:55 AM,14.7,6.4,70,30.29,10.0,West,9.2,-,N/A,,Clear,270,2013-12-10 13:55:00
8:15 AM,16.7,7.7,68,30.29,10.0,West,8.1,-,N/A,,Clear,260,2013-12-10 14:15:00
8:35 AM,19.9,9.0,62,30.29,10.0,West,5.8,-,N/A,,Clear,260,2013-12-10 14:35:00
8:55 AM,22.6,10.0,59,30.29,10.0,Calm,Calm,-,N/A,,Clear,0,2013-12-10 14:55:00
9:15 AM,26.1,11.1,53,30.29,10.0,SW,4.6,-,N/A,,Clear,230,2013-12-10 15:15:00
9:35 AM,29.8,11.7,47,30.28,10.0,SSW,5.8,-,N/A,,Clear,210,2013-12-10 15:35:00
9:55 AM,34.7,12.6,40,30.28,10.0,South,6.9,-,N/A,,Clear,190,2013-12-10 15:55:00
10:15 AM,37.4,9.0,31,30.27,10.0,SSW,10.4,-,N/A,,Clear,200,2013-12-10 16:15:00
10:35 AM,40.6,2.8,21,30.27,10.0,South,13.8,-,N/A,,Clear,190,2013-12-10 16:35:00
10:55 AM,42.4,1.4,18,30.25,10.0,South,16.1,-,N/A,,Clear,180,2013-12-10 16:55:00
11:15 AM,43.9,-3.3,14,30.23,10.0,South,19.6,24.2,N/A,,Clear,180,2013-12-10 17:15:00
11:35 AM,44.6,-3.1,14,30.22,10.0,South,20.7,-,N/A,,Clear,180,2013-12-10 17:35:00
11:55 AM,45.5,-3.3,13,30.19,10.0,South,24.2,31.1,N/A,,Clear,180,2013-12-10 17:55:00
12:15 PM,46.4,-3.8,12,30.18,10.0,South,24.2,29.9,N/A,,Clear,190,2013-12-10 18:15:00
12:35 PM,47.1,-2.9,12,30.16,10.0,SSW,24.2,31.1,N/A,,Clear,200,2013-12-10 18:35:00
12:55 PM,46.6,-4.4,12,30.14,10.0,South,21.9,28.8,N/A,,Clear,190,2013-12-10 18:55:00
1:15 PM,46.6,-3.3,13,30.14,10.0,South,23.0,29.9,N/A,,Clear,190,2013-12-10 19:15:00
1:35 PM,46.4,-2.2,13,30.12,10.0,South,24.2,29.9,N/A,,Clear,190,2013-12-10 19:35:00
1:55 PM,46.6,-2.4,13,30.11,10.0,SSW,24.2,33.4,N/A,,Clear,200,2013-12-10 19:55:00
2:15 PM,47.8,-1.3,13,30.10,10.0,South,24.2,33.4,N/A,,Clear,190,2013-12-10 20:15:00
2:35 PM,48.7,-1.3,13,30.09,10.0,SSW,28.8,34.5,N/A,,Clear,200,2013-12-10 20:35:00
2:55 PM,49.3,-0.4,13,30.07,10.0,South,25.3,36.8,N/A,,Clear,190,2013-12-10 20:55:00
3:15 PM,49.5,-0.9,13,30.06,10.0,SSW,25.3,35.7,N/A,,Clear,200,2013-12-10 21:15:00
3:35 PM,50.0,-1.8,12,30.06,10.0,SSW,23.0,36.8,N/A,,Clear,210,2013-12-10 21:35:00
3:55 PM,50.2,-2.0,12,30.06,10.0,SSW,20.7,32.2,N/A,,Clear,210,2013-12-10 21:55:00
4:15 PM,50.0,-2.0,12,30.06,10.0,SSW,21.9,32.2,N/A,,Clear,210,2013-12-10 22:15:00
4:35 PM,49.1,-0.8,13,30.05,10.0,SSW,20.7,35.7,N/A,,Clear,210,2013-12-10 22:35:00
4:55 PM,46.9,-1.5,13,30.05,10.0,SSW,20.7,-,N/A,,Clear,210,2013-12-10 22:55:00
5:15 PM,44.6,-0.4,15,30.05,10.0,SSW,18.4,-,N/A,,Clear,210,2013-12-10 23:15:00
5:35 PM,43.0,0.5,17,30.05,10.0,SSW,17.3,-,N/A,,Clear,200,2013-12-10 23:35:00
5:55 PM,41.4,0.9,18,30.05,10.0,SSW,17.3,-,N/A,,Clear,200,2013-12-10 23:55:00
6:15 PM,40.1,1.4,20,30.03,10.0,South,17.3,23.0,N/A,,Clear,190,2013-12-11 00:15:00
6:35 PM,39.2,1.9,21,30.03,10.0,South,16.1,-,N/A,,Clear,190,2013-12-11 00:35:00
6:55 PM,38.3,2.3,22,30.03,10.0,South,15.0,-,N/A,,Clear,190,2013-12-11 00:55:00
7:15 PM,36.7,3.0,24,30.03,10.0,South,15.0,-,N/A,,Clear,190,2013-12-11 01:15:00
7:35 PM,34.9,3.4,27,30.03,10.0,South,13.8,-,N/A,,Clear,190,2013-12-11 01:35:00
7:55 PM,33.8,3.7,28,30.03,10.0,South,12.7,-,N/A,,Clear,190,2013-12-11 01:55:00
8:15 PM,33.8,3.7,28,30.04,10.0,SSW,12.7,-,N/A,,Clear,200,2013-12-11 02:15:00
8:35 PM,32.9,3.9,29,30.04,10.0,SSW,13.8,-,N/A,,Clear,200,2013-12-11 02:35:00
8:55 PM,32.0,4.1,31,30.05,10.0,SSW,11.5,-,N/A,,Clear,210,2013-12-11 02:55:00
9:15 PM,33.8,4.6,29,30.04,10.0,SSW,15.0,-,N/A,,Clear,210,2013-12-11 03:15:00
9:35 PM,33.3,5.0,30,30.05,10.0,SSW,12.7,-,N/A,,Clear,210,2013-12-11 03:35:00
9:55 PM,33.1,6.6,33,30.05,10.0,SW,12.7,-,N/A,,Clear,220,2013-12-11 03:55:00
10:15 PM,33.4,8.4,35,30.06,10.0,SW,6.9,-,N/A,,Clear,220,2013-12-11 04:15:00
10:35 PM,34.2,9.5,36,30.07,10.0,Calm,Calm,-,N/A,,Clear,0,2013-12-11 04:35:00
10:55 PM,34.7,10.9,37,30.07,10.0,SW,10.4,-,N/A,,Clear,230,2013-12-11 04:55:00
11:15 PM,35.6,11.3,37,30.08,10.0,WSW,10.4,-,N/A,,Clear,240,2013-12-11 05:15:00
11:35 PM,34.0,11.1,39,30.09,10.0,WSW,11.5,-,N/A,,Clear,240,2013-12-11 05:35:00
11:55 PM,34.9,10.8,37,30.10,10.0,West,10.4,-,N/A,,Clear,260,2013-12-11 05:55:00